SCP
0 0 0 0 -0 -0 -0 -0 -0 0 0 0 0 -0 -0 -0 0 0 0 0 0 0 0 0 0 0 0 0 0 0 0 0 0 0 0 0 0 0 0 0 0 0 0
0 0 0 0 -0 -0 0 0 0 0 0 0 0 0 0 0 0 0 0 0 0 0 0 0 0 0 0 0 0 0 0 0 0 0 0 0 0 0 0 0 0 0 0
0 0 0 -0 -0 -0 0 0 0 0 0 0 0 0 0 0 0 0 0 0 0 0 0 0 0 0 0 0 0 0 0 0 0 0 0 0 0 0 0 0 0 0 0
0 0 -0 -0 -0 0 0 0 0 0 0 0 0 0 0 0 0 0 0 0 0 0 0 0 0 0 0 0 0 0 0 0 0 0 0 0 0 0 0 0 0 0 0
-0 -0 -0 -0 0 0 0 0 0 0 0 0 0 0 0 0 0 0 0 0 0 0 0 0 0 0 0 0 0 0 0 0 0 0 0 0 0 0 0 0 0 0 0
-0 -0 0 0 0 0 0 0 0 0 0 0 0 0 0 0 0 0 0 0 0 0 0 0 0 0 0 0 0 0 0 0 0 0 0 0 0 0 0 0 0 0 0
0 0 0 0 0 0 0 0 0 0 0 0 0 0 0 0 0 0 0 0 0 0 0 0 0 0 0 0 0 0 0 0 0 0 0 0 0 0 0 0 0 0 0
0 0 0 0 0 0 0 0 0 0 0 0 0 0 0 0 0 0 0 0 0 0 0 0 0 0 0 0 0 0 0 0 0 0 0 0 0 0 0 0 0 0 0
0 0 0 0 0 0 0 0 0 0 0 0 0 0 0 0 0 0 0 0 0 0 0 0 0 0 0 0 0 0 0 0 0 0 0 0 0 0 0 0 0 0 0
0 0 0 0 0 0 0 0 0 0 0 0 0 0 0 0 0 0 0 0 0 0 0 0 0 0 0 0 0 0 0 0 0 0 0 0 0 0 0 0 0 0 0
0 0 0 0 0 0 0 0 0 0 0 0 0 0 0 0 0 0 0 0 0 0 0 0 0 0 0 0 0 0 0 0 0 0 0 0 0 0 0 0 0 0 0
0 0 0 0 0 0 0 0 0 0 0 0 0 0 0 0 0 0 0 0 0 0 0 0 0 0 0 0 0 0 0 0 0 0 0 0 0 0 0 0 0 0 0
0 0 0 0 0 0 0 0 0 0 0 0 0 0 0 0 0 0 0 0 0 0 0 0 0 0 0 0 0 0 0 0 0 0 0 0 0 0 0 0 0 0 0
0 0 0 0 0 0 0 0 0 0 0 0 0 0 0 0 0 0 0 0 0 0 0 0 0 0 0 0 0 0 0 0 0 0 0 0 0 0 0 0 0 0 0
0 0 0 0 0 0 0 0 0 0 0 0 0 0 0 0 0 0 0 0 0 0 0 0 0 0 0 0 0 0 0 0 0 0 0 0 0 0 0 0 0 0 0
0 0 0 0 0 0 0 0 0 0 0 0 0 0 0 0 0 0 0 0 0 0 0 0 0 0 0 0 0 0 0 0 0 0 0 0 0 0 0 0 0 0 0
0 0 0 0 0 0 0 0 0 0 0 0 0 0 0 0 0 0 0 0 0 0 0 0 0 0 0 0 0 0 0 0 0 0 0 0 0 0 0 0 0 0 0
0 0 0 0 0 0 0 0 0 0 0 0 0 0 0 0 0 0 0 0 0 0 0 0 0 0 0 0 0 0 0 0 0 0 0 0 0 0 0 0 0 0 0
0 0 0 0 0 0 0 0 0 0 0 0 0 0 0 0 0 0 0 0 0 0 0 0 0 0 0 0 0 0 0 0 0 0 0 0 0 0 0 0 0 0 0
0 0 0 0 0 0 0 0 0 0 0 0 0 0 0 0 0 0 0 0 0 0 0 0 0 0 0 0 0 0 0 0 0 0 0 0 0 0 0 0 0 0 0
0 0 0 0 0 0 0 0 0 0 0 0 0 0 0 0 0 0 0 0 0 0 0 0 0 0 0 0 0 0 0 0 0 0 0 0 0 0 0 0 0 0 0
0 0 0 0 0 0 0 0 0 0 0 0 0 0 0 0 0 0 0 0 0 0 0 0 0 0 0 0 0 0 0 0 0 0 0 0 0 0 0 0 0 0 0
0 0 0 0 0 0 0 0 0 0 0 0 0 0 0 0 0 0 0 0 0 0 0 0 0 0 0 0 0 0 0 0 0 0 0 0 0 0 0 0 0 0 0
0 0 0 0 0 0 0 0 0 0 0 0 0 0 0 0 0 0 0 0 0 0 0 0 0 0 0 0 0 0 0 0 0 0 0 0 0 0 0 0 0 0 0
0 0 0 0 0 0 0 0 0 0 0 0 0 0 0 0 0 0 0 0 0 0 0 0 0 0 0 0 0 0 0 0 0 0 0 0 0 0 0 0 0 0 0
0 0 0 0 0 0 0 0 0 0 0 0 0 0 0 0 0 0 0 0 0 0 0 0 0 0 0 0 0 0 0 0 0 0 0 0 0 0 0 -0 0 0 0
Wind_Speed
10 9 11 13 14 16 17 16 17 16 14 12 12 12 11 10 9 7 11 13 13 13 11 9 9 9 9 9 10 9 9 6 4 3 4 4 5 6 5 5 5 6 7
13 13 13 14 15 14 15 15 15 14 14 12 11 11 11 10 10 10 11 12 14 14 12 11 10 10 10 11 10 9 7 5 4 4 3 3 3 4 5 4 5 6 5
11 11 12 13 14 15 17 16 16 15 14 15 11 12 10 11 11 13 12 13 16 15 13 12 10 10 9 9 11 10 10 8 6 6 5 4 6 3 2 3 3 4 5
10 9 12 15 16 16 15 16 16 16 15 15 14 16 13 13 14 12 12 15 15 15 14 13 11 10 9 11 11 11 9 10 9 6 6 4 4 4 2 2 1 2 4
9 9 10 12 15 15 14 14 16 16 16 16 15 15 14 13 12 13 14 14 12 12 13 12 11 10 10 11 12 13 12 9 10 7 5 4 2 2 4 3 2 1 2
8 8 9 10 11 12 13 15 16 16 16 16 15 16 17 17 18 17 16 14 12 11 12 14 11 10 10 11 12 12 13 11 11 8 6 5 5 5 4 4 3 3 2
8 9 10 11 12 14 14 15 16 16 17 17 17 17 17 17 17 17 16 16 14 14 17 17 14 12 12 12 12 12 13 12 11 9 7 6 5 4 5 5 4 3 1
7 8 9 10 11 13 15 16 17 17 17 17 16 15 16 13 13 16 15 15 14 15 19 20 18 18 16 15 12 11 12 11 10 10 8 6 5 4 5 6 6 4 1
7 8 8 9 10 12 14 16 17 17 17 17 17 14 15 15 16 17 15 13 14 16 19 20 20 19 17 15 13 10 11 10 9 8 7 5 4 3 3 3 5 7 5
7 8 8 10 11 11 13 14 15 16 15 16 15 14 15 15 15 15 17 17 18 18 19 20 20 19 17 15 12 10 9 8 6 4 5 4 3 3 2 3 2 3 5
9 8 8 9 11 11 12 13 15 16 16 16 15 14 14 14 15 14 16 16 17 18 18 19 20 19 18 16 13 10 8 7 5 3 2 3 3 3 2 3 3 3 3
7 7 7 9 11 11 12 13 14 15 16 15 15 15 15 15 15 15 16 17 17 17 17 18 19 19 18 17 16 14 10 7 4 1 1 2 2 3 2 3 3 3 3
7 6 7 9 11 11 12 12 13 14 15 15 15 15 15 16 16 16 16 16 17 17 16 16 17 18 18 16 17 16 14 11 8 5 2 3 3 3 2 3 3 2 2
8 8 9 9 10 10 11 12 12 13 15 15 14 14 15 15 15 15 16 16 16 16 16 15 15 16 17 14 14 15 15 14 12 11 9 7 4 3 3 3 3 3 3
11 11 11 9 10 10 11 12 12 13 14 14 15 15 14 14 14 14 15 16 16 17 16 15 14 15 14 12 12 12 14 14 14 13 12 13 14 11 6 4 3 3 2
11 12 13 11 11 11 12 13 12 13 13 13 14 15 15 15 15 14 15 15 15 15 15 15 14 14 13 20 18 13 11 12 13 13 13 13 15 17 18 18 15 10 5
11 12 11 10 10 9 11 11 12 12 12 12 13 14 14 15 15 15 15 15 14 14 14 14 14 14 18 25 18 16 9 10 10 11 11 10 11 13 10 15 19 19 19
9 9 9 10 8 8 9 10 10 11 12 12 12 13 13 14 14 13 14 13 11 11 11 12 13 13 17 27 22 14 8 7 9 9 9 9 10 10 10 10 11 11 11
5 6 6 7 8 9 10 10 10 10 11 11 12 12 12 13 13 13 13 12 10 10 10 10 12 13 16 24 24 14 5 5 7 8 9 8 8 14 14 10 9 11 11
5 6 7 7 8 9 9 9 10 10 11 12 12 12 12 13 11 12 12 12 11 11 11 10 10 12 13 22 23 17 5 5 6 7 9 12 11 14 14 8 8 9 9
6 6 7 7 8 9 9 9 10 10 12 12 12 12 12 11 9 10 10 11 12 12 10 10 10 9 14 19 23 19 6 5 5 5 6 7 15 18 19 13 8 11 9
7 7 7 9 9 8 8 10 11 11 12 12 12 12 11 11 11 9 9 9 10 10 9 8 9 9 10 16 18 20 14 7 4 3 4 6 18 20 19 14 15 16 11
8 7 7 9 9 8 8 10 12 12 12 12 12 12 12 10 9 8 8 8 7 8 9 8 9 9 9 12 19 19 18 14 5 3 4 11 16 16 13 17 18 13 8
7 7 9 10 11 10 11 10 12 12 13 14 13 12 11 10 8 9 8 7 7 7 9 8 8 8 9 9 8 7 8 9 6 6 10 14 16 13 13 12 10 8 8
8 8 9 11 12 11 12 13 13 12 13 14 13 13 12 10 8 8 7 10 7 9 10 6 5 7 7 11 17 11 9 6 3 5 5 5 6 6 6 6 7 7 7
7 9 10 12 13 13 13 13 12 12 13 14 14 12 11 10 10 10 10 14 14 18 17 15 12 10 13 15 16 17 17 17 15 9 6 6 6 6 6 6 5 5 6
Wind_Direction
349 356 5 2 360 0 358 356 354 354 355 354 350 345 341 338 334 334 338 333 333 333 328 327 325 323 317 310 306 301 288 265 234 234 254 258 241 235 235 234 235 235 228
355 357 2 360 356 354 352 352 351 350 355 353 346 340 332 331 331 333 332 332 332 328 327 326 322 317 314 310 307 305 291 274 222 209 219 262 289 252 232 229 230 234 227
350 351 359 357 353 353 353 349 348 349 354 353 349 343 337 337 340 337 334 334 330 325 322 319 317 313 310 305 305 300 288 279 258 215 191 196 223 252 265 232 235 240 231
348 353 358 356 353 349 347 347 348 349 354 355 350 347 344 339 335 329 324 324 322 318 317 315 312 309 306 302 301 300 291 279 266 239 224 214 177 178 237 263 249 255 241
345 351 356 354 350 346 346 349 348 349 351 350 347 343 339 335 329 326 322 320 314 308 307 306 304 303 301 297 296 296 290 277 263 243 215 209 207 178 173 222 247 263 258
343 347 349 351 346 346 352 351 347 347 348 346 345 342 339 336 332 332 329 328 323 317 313 311 304 298 295 294 293 290 286 278 266 252 224 192 177 181 175 186 203 224 254
342 344 346 350 351 351 354 349 345 347 348 346 345 341 340 335 332 330 327 327 327 327 326 324 315 308 299 292 288 285 281 275 265 252 236 227 213 175 169 165 166 188 238
338 341 345 348 349 351 355 350 347 347 347 345 342 340 340 336 332 327 325 325 326 326 326 324 318 312 305 298 289 285 279 272 261 250 235 226 222 197 177 166 151 152 189
338 341 347 352 350 355 357 349 346 345 344 342 339 338 340 337 333 328 327 327 327 326 328 325 322 317 311 302 291 280 279 272 260 247 231 217 207 201 195 168 156 154 167
343 348 355 356 353 357 353 344 344 342 340 340 338 339 335 334 333 331 330 330 328 330 331 330 328 326 323 316 303 285 280 274 261 241 219 203 182 176 169 157 138 137 148
344 351 357 357 351 353 350 343 344 342 341 339 336 334 334 335 335 334 331 330 330 332 336 337 336 337 339 336 327 313 297 283 269 250 206 178 141 156 152 132 125 122 126
339 350 355 353 348 349 347 344 344 342 340 337 335 334 334 336 337 335 333 332 333 334 339 341 342 343 347 350 348 344 341 327 306 268 145 114 106 108 110 117 118 125 124
339 348 353 351 346 344 343 340 342 341 339 338 336 335 336 337 336 335 334 335 336 336 339 344 345 344 348 359 0 359 359 360 359 5 46 83 102 100 96 100 106 112 110
344 349 349 346 341 341 339 336 337 339 339 338 336 336 336 334 333 335 336 337 338 338 339 342 345 345 343 357 11 8 7 6 8 12 23 35 54 78 90 92 101 110 112
348 350 346 343 339 339 338 338 335 337 337 336 337 336 335 333 333 337 339 338 339 340 338 339 344 346 343 351 24 17 11 11 13 16 19 25 32 44 65 87 79 93 112
347 347 344 342 339 338 337 336 332 332 332 332 333 335 337 338 338 339 341 340 339 338 340 341 343 347 345 353 29 35 17 15 17 18 18 19 24 27 39 56 61 64 70
346 344 340 336 332 331 333 330 327 325 328 329 330 334 336 338 339 342 342 340 337 337 341 342 345 346 344 357 20 36 30 22 21 21 19 19 23 33 34 42 44 43 46
341 334 331 328 323 321 326 324 322 323 326 327 329 332 335 337 338 342 341 337 334 335 337 338 342 344 345 355 10 29 30 25 23 22 20 18 22 41 49 51 52 48 48
329 319 318 314 316 320 323 324 320 322 326 330 332 332 332 335 338 343 339 336 333 334 337 340 343 346 344 349 360 23 18 27 20 15 16 27 31 50 58 55 56 52 41
326 318 316 314 317 317 322 322 322 325 329 331 330 329 330 332 335 339 336 336 337 341 343 343 344 345 343 349 358 17 16 24 21 14 8 24 49 61 67 58 59 61 53
322 319 317 317 313 315 321 320 319 319 321 325 326 328 327 322 331 334 331 334 340 341 342 342 340 341 349 352 355 10 28 26 27 26 12 19 52 62 63 62 69 81 74
324 322 322 319 315 313 318 317 316 313 316 319 321 321 321 319 332 327 324 329 333 337 334 339 343 344 343 349 352 5 16 38 40 37 13 39 60 60 59 56 58 67 67
323 322 318 315 314 312 313 313 312 313 316 316 314 312 313 312 313 316 317 323 327 332 333 343 346 341 341 340 351 2 4 12 29 29 88 81 68 58 50 54 58 55 51
326 322 322 320 315 313 314 309 308 313 314 313 311 310 309 306 302 308 316 318 318 319 324 340 341 334 335 334 343 351 353 0 23 37 59 70 73 69 63 57 52 51 58
325 324 319 312 310 314 313 312 313 312 311 310 308 310 311 305 299 299 298 305 301 306 317 326 322 328 328 339 0 14 8 7 54 81 73 68 66 66 65 64 62 58 54
316 317 314 315 315 315 312 311 311 311 310 312 314 314 314 312 311 307 302 299 306 317 321 321 325 328 337 353 12 18 21 31 50 58 54 55 55 57 59 62 62 60 59